Location: Sungai Jaoh
(2.9167°N, 113.9167°E)
Time: 13:13:12
(UTC+00:00)

CZ-4C DEB - Visible Passes

Search period start: 23 June 2021 00:00
Search period end: 03 July 2021 00:00
Orbit: 1013 x 1176 km, 63.4° (Epoch: 22 June)

Date Brightness Start Highest point End Pass type
(mag) Time Alt. Az. Time Alt. Az. Time Alt. Az.
29 Jun ? 14:06:51 10° N 14:07:19 12° N 14:07:19 12° N visible
30 Jun ? 13:20:46 10° NNE 13:20:52 10° NNE 13:20:52 10° NNE visible
01 Jul ? 14:20:23 10° NNW 14:21:41 16° NNW 14:21:41 16° NNW visible
02 Jul ? 13:32:55 10° N 13:35:21 21° N 13:35:21 21° N visible
